Location: Rounton
(54.4000°N, 1.3500°W)
Time: 14:34:41
(UTC+00:00)

Transit 4A - Pass Details

Date: 01 December 2021
Orbit: 864 x 981 km, 66.8° (Epoch: 18 January)

Event Time Altitude Azimuth Distance (km) Brightness Sun altitude
Rises 06:12:23 0° 313° (NW) 3,614 - -15.1°
Reaches altitude 10° 06:15:42 10° 295° (WNW) 2,685 - -14.6°
Exits shadow 06:18:44 17° 267° (W) 2,202 9.3 -14.2°
Maximum altitude 06:19:44 18° 255° (WSW) 2,168 9.3 -14.1°
Drops below altitude 10° 06:23:48 10° 215° (SW) 2,713 10.2 -13.5°
Sets 06:27:12 0° 197° (SSW) 3,665 11.0 -13.0°
